This is the latest recevied weather packets stored in our database for station/object W0CHP-13. If no packets are shown the sender has not sent any weather packets the latest 10 day(s).
| Time | Temp. | Humidity | Pressure | Rain* | Wind** | Luminosity | Snow |
|---|---|---|---|---|---|---|---|
| 1777833796 | 23.33° C | 32% | 1003.2 hPa | 0 mm | - | 767 W/m² | - |
| 1777833195 | 23.33° C | 30% | 1003.4 hPa | 0 mm | - | 775 W/m² | - |
| 1777832597 | 23.33° C | 30% | 1003.4 hPa | 0 mm | - | 773 W/m² | - |
| 1777831995 | 23.89° C | 27% | 1003.4 hPa | 0 mm | - | 779 W/m² | - |
| 1777831397 | 25° C | 28% | 1003.4 hPa | 0 mm | - | 775 W/m² | - |
| 1777830795 | 25.56° C | 28% | 1003.4 hPa | 0 mm | - | 777 W/m² | - |
| 1777830198 | 25° C | 27% | 1003.5 hPa | 0 mm | - | 771 W/m² | - |
| 1777829596 | 25° C | 27% | 1003.7 hPa | 0 mm | - | 766 W/m² | - |
| 1777828998 | 25° C | 26% | 1003.5 hPa | 0 mm | - | 759 W/m² | - |
| 1777828396 | 26.11° C | 26% | 1003.7 hPa | 0 mm | - | 751 W/m² | - |
| 1777827798 | 26.11° C | 28% | 1003.7 hPa | 0 mm | - | 741 W/m² | - |
| 1777827197 | 25° C | 27% | 1003.7 hPa | 0 mm | - | 728 W/m² | - |
| 1777826595 | 26.11° C | 26% | 1003.7 hPa | 0 mm | - | 719 W/m² | - |
| 1777825997 | 26.11° C | 24% | 1003.7 hPa | 0 mm | - | 706 W/m² | - |
| 1777825395 | 25.56° C | 26% | 1003.7 hPa | 0 mm | - | 692 W/m² | - |
| 1777824797 | 25° C | 24% | 1003.7 hPa | 0 mm | - | 675 W/m² | - |
| 1777824195 | 25.56° C | 26% | 1003.9 hPa | 0 mm | - | 654 W/m² | - |
| 1777823598 | 25° C | 27% | 1003.9 hPa | 0 mm | - | 634 W/m² | - |
| 1777822996 | 24.44° C | 27% | 1004 hPa | 0 mm | - | 614 W/m² | - |
| 1777822398 | 24.44° C | 25% | 1004 hPa | 0 mm | - | 591 W/m² | - |
| 1777821796 | 24.44° C | 27% | 1003.9 hPa | 0 mm | - | 564 W/m² | - |
| 1777821198 | 23.89° C | 27% | 1004 hPa | 0 mm | - | 543 W/m² | - |
| 1777820597 | 23.89° C | 27% | 1004.2 hPa | 0 mm | - | 517 W/m² | - |
| 1777819999 | 22.78° C | 26% | 1004.4 hPa | 0 mm | - | 490 W/m² | - |
| 1777819397 | 22.78° C | 27% | 1004.4 hPa | 0 mm | - | 463 W/m² | - |
* Rain latest hour (hover to see other rain measurements)
** Current wind speed in m/s (hover to see current wind gust speed)